SKY137 RJBE-RJFK

Flight info

Callsign SKY137
Flight time 0h 55m
Altitude 32000
Route MUKRI ATKAS TANTA Y236 VEXOT Y756 VIRUD Y757 SPICA
Aircraft B738/M-SDE2E3FGHIRWXY/LB1

Departure

Time 2026-05-04 19:56
Airport Kobe Airport (RJBE)

Arrival

Time 2026-05-04 20:52
Airport Kagoshima Airport (RJFK)
Time Latitude Longitude Altitude Speed Heading
2026-05-04 19:41 34.63597 135.22929 29 ft 0 kts 354°
2026-05-04 19:49 34.63596 135.22929 30 ft 1 kts 354°
2026-05-04 19:49 34.63579 135.22931 31 ft 3 kts 354°
2026-05-04 19:49 34.63559 135.22934 29 ft 3 kts 354°
2026-05-04 19:50 34.63538 135.22936 29 ft 3 kts 354°
2026-05-04 19:50 34.63518 135.22939 29 ft 3 kts 354°
2026-05-04 19:50 34.63502 135.22941 29 ft 3 kts
2026-05-04 19:50 34.63486 135.22935 32 ft 3 kts 51°
2026-05-04 19:51 34.63478 135.22915 27 ft 3 kts 83°
2026-05-04 19:51 34.63477 135.22902 27 ft 1 kts 84°
2026-05-04 19:51 34.63477 135.22899 28 ft 0 kts 84°
2026-05-04 19:53 34.63478 135.22907 31 ft 3 kts 84°
2026-05-04 19:53 34.63481 135.22951 30 ft 8 kts 84°
2026-05-04 19:53 34.63488 135.23039 27 ft 13 kts 84°
2026-05-04 19:54 34.63498 135.23172 27 ft 18 kts 84°
2026-05-04 19:54 34.63511 135.23341 30 ft 22 kts 85°
2026-05-04 19:54 34.63525 135.23525 26 ft 22 kts 84°
2026-05-04 19:54 34.63526 135.23679 26 ft 16 kts 112°
2026-05-04 19:55 34.63440 135.23721 28 ft 11 kts 175°
2026-05-04 19:55 34.63391 135.23718 29 ft 4 kts 205°
2026-05-04 19:55 34.63378 135.23703 28 ft 7 kts 231°
2026-05-04 19:55 34.63364 135.23586 27 ft 30 kts 265°
2026-05-04 19:56 34.63322 135.23040 26 ft 98 kts 264°
2026-05-04 19:56 34.63241 135.21987 29 ft 153 kts 265°
2026-05-04 19:56 34.63124 135.20569 385 ft 173 kts 266°
2026-05-04 19:56 34.62999 135.19078 998 ft 184 kts 257°
2026-05-04 19:57 34.62344 135.17726 1715 ft 186 kts 226°
2026-05-04 19:57 34.61405 135.16602 2257 ft 204 kts 229°
2026-05-04 19:57 34.60401 135.15241 2463 ft 227 kts 231°
2026-05-04 19:57 34.59336 135.13706 2712 ft 249 kts 232°
2026-05-04 19:58 34.58195 135.12013 3124 ft 264 kts 233°
2026-05-04 19:58 34.57087 135.10202 3844 ft 268 kts 244°
2026-05-04 19:58 34.56375 135.08115 4626 ft 268 kts 252°
2026-05-04 19:58 34.55828 135.06028 5334 ft 269 kts 265°
2026-05-04 19:59 34.55843 135.03770 6128 ft 266 kts 277°
2026-05-04 19:59 34.55940 135.01532 6928 ft 267 kts 276°
2026-05-04 19:59 34.56024 134.99323 7606 ft 270 kts 276°
2026-05-04 19:59 34.56101 134.97027 8308 ft 273 kts 276°
2026-05-04 20:00 34.56173 134.94745 9042 ft 275 kts 276°
2026-05-04 20:00 34.56245 134.92406 9769 ft 277 kts 276°
2026-05-04 20:00 34.56314 134.90053 10414 ft 283 kts 276°
2026-05-04 20:00 34.56381 134.87571 10591 ft 304 kts 276°
2026-05-04 20:01 34.56446 134.84947 10758 ft 325 kts 275°
2026-05-04 20:01 34.56515 134.82120 10917 ft 344 kts 275°
2026-05-04 20:01 34.56364 134.79139 11040 ft 368 kts 259°
2026-05-04 20:01 34.55285 134.76287 11458 ft 384 kts 238°
2026-05-04 20:02 34.53413 134.73919 12106 ft 390 kts 225°
2026-05-04 20:02 34.51361 134.71759 12788 ft 391 kts 225°
2026-05-04 20:02 34.49282 134.69597 13392 ft 393 kts 224°
2026-05-04 20:02 34.47217 134.67444 14078 ft 394 kts 225°
2026-05-04 20:03 34.45169 134.65293 14669 ft 395 kts 225°
2026-05-04 20:03 34.43090 134.63095 15268 ft 397 kts 225°
2026-05-04 20:03 34.41007 134.60885 15859 ft 400 kts 225°
2026-05-04 20:03 34.38897 134.58640 16387 ft 404 kts 225°
2026-05-04 20:04 34.36797 134.56408 17011 ft 404 kts 225°
2026-05-04 20:04 34.34686 134.54165 17643 ft 405 kts 225°
2026-05-04 20:04 34.32556 134.51904 18218 ft 407 kts 225°
2026-05-04 20:04 34.30416 134.49632 18731 ft 410 kts 225°
2026-05-04 20:05 34.28259 134.47348 19280 ft 410 kts 225°
2026-05-04 20:05 34.25981 134.45332 19822 ft 417 kts 212°
2026-05-04 20:05 34.23239 134.44058 20396 ft 421 kts 204°
2026-05-04 20:05 34.20473 134.42892 21019 ft 419 kts 205°
2026-05-04 20:06 34.17721 134.41679 21478 ft 421 kts 206°
2026-05-04 20:06 34.15012 134.40456 22057 ft 420 kts 206°
2026-05-04 20:06 34.12256 134.39191 22407 ft 423 kts 208°
2026-05-04 20:06 34.09646 134.37566 22732 ft 420 kts 218°
2026-05-04 20:07 34.07309 134.35496 23253 ft 413 kts 225°
2026-05-04 20:07 34.05274 134.33149 23827 ft 406 kts 233°
2026-05-04 20:07 34.03473 134.30537 24208 ft 405 kts 234°
2026-05-04 20:07 34.01686 134.27896 24572 ft 405 kts 234°
2026-05-04 20:08 33.99900 134.25267 24957 ft 405 kts 234°
2026-05-04 20:08 33.98049 134.22698 25336 ft 404 kts 233°
2026-05-04 20:08 33.96269 134.20112 25630 ft 405 kts 235°
2026-05-04 20:08 33.94498 134.17452 25952 ft 406 kts 234°
2026-05-04 20:09 33.92703 134.14829 26366 ft 405 kts 234°
2026-05-04 20:09 33.90899 134.12219 26729 ft 404 kts 234°
2026-05-04 20:09 33.89133 134.09665 27272 ft 398 kts 233°
2026-05-04 20:09 33.87343 134.07152 27924 ft 390 kts 233°
2026-05-04 20:10 33.85613 134.04672 28575 ft 383 kts 234°
2026-05-04 20:10 33.83934 134.02206 29221 ft 376 kts 234°
2026-05-04 20:10 33.82358 133.99844 29706 ft 372 kts 235°
2026-05-04 20:10 33.80723 133.97441 30309 ft 368 kts 233°
2026-05-04 20:11 33.79089 133.95099 30720 ft 363 kts 234°
2026-05-04 20:11 33.77494 133.92723 30977 ft 365 kts 232°
2026-05-04 20:11 33.75691 133.90607 31232 ft 370 kts 225°
2026-05-04 20:11 33.73719 133.88630 31571 ft 368 kts 227°
2026-05-04 20:12 33.71810 133.86599 31959 ft 365 kts 227°
2026-05-04 20:12 33.69914 133.84572 32146 ft 365 kts 227°
2026-05-04 20:12 33.68006 133.82542 32180 ft 365 kts 227°
2026-05-04 20:13 33.64201 133.78518 32150 ft 366 kts 226°
2026-05-04 20:13 33.60370 133.74485 32139 ft 366 kts 226°
2026-05-04 20:14 33.56535 133.70443 32143 ft 365 kts 228°
2026-05-04 20:14 33.53296 133.65870 32150 ft 360 kts 237°
2026-05-04 20:15 33.50799 133.60687 32163 ft 359 kts 242°
2026-05-04 20:15 33.48405 133.55426 32138 ft 359 kts 242°
2026-05-04 20:16 33.46009 133.50203 32159 ft 360 kts 242°
2026-05-04 20:16 33.43591 133.44959 32159 ft 361 kts 242°
2026-05-04 20:17 33.40894 133.39854 32181 ft 364 kts 234°
2026-05-04 20:17 33.37349 133.35495 32131 ft 369 kts 227°
2026-05-04 20:18 33.33593 133.31306 32165 ft 369 kts 227°
2026-05-04 20:18 33.29829 133.27091 32159 ft 370 kts 227°
2026-05-04 20:19 33.26101 133.22905 32150 ft 370 kts 227°
2026-05-04 20:19 33.22363 133.18710 32160 ft 368 kts 227°
2026-05-04 20:20 33.18622 133.14519 32169 ft 369 kts 227°
2026-05-04 20:20 33.14888 133.10337 32164 ft 369 kts 227°
2026-05-04 20:21 33.11139 133.06135 32110 ft 368 kts 227°
2026-05-04 20:21 33.05609 132.99925 32174 ft 368 kts 227°
2026-05-04 20:22 33.01865 132.95747 32157 ft 369 kts 227°
2026-05-04 20:22 32.98104 132.91552 32128 ft 370 kts 227°
2026-05-04 20:23 32.94363 132.87374 32132 ft 371 kts 228°
2026-05-04 20:23 32.90567 132.83209 32150 ft 370 kts 228°
2026-05-04 20:24 32.86835 132.79010 32183 ft 370 kts 227°
2026-05-04 20:24 32.83091 132.74803 32141 ft 372 kts 228°
2026-05-04 20:25 32.79291 132.70590 32158 ft 373 kts 227°
2026-05-04 20:25 32.75494 132.66418 32157 ft 373 kts 227°
2026-05-04 20:26 32.71679 132.62213 32158 ft 373 kts 227°
2026-05-04 20:26 32.67894 132.58039 32167 ft 373 kts 227°
2026-05-04 20:27 32.64079 132.53837 32156 ft 373 kts 227°
2026-05-04 20:27 32.60289 132.49668 32158 ft 373 kts 227°
2026-05-04 20:28 32.58377 132.47566 31849 ft 376 kts 227°
2026-05-04 20:28 32.56473 132.45474 31428 ft 373 kts 227°
2026-05-04 20:28 32.54572 132.43391 30965 ft 368 kts 227°
2026-05-04 20:28 32.52700 132.41340 30497 ft 363 kts 227°
2026-05-04 20:29 32.50872 132.39335 30001 ft 360 kts 227°
2026-05-04 20:29 32.49041 132.37329 29452 ft 356 kts 227°
2026-05-04 20:29 32.47231 132.35346 28971 ft 352 kts 227°
2026-05-04 20:29 32.45440 132.33386 28495 ft 348 kts 227°
2026-05-04 20:30 32.43676 132.31455 28043 ft 343 kts 227°
2026-05-04 20:30 32.41930 132.29546 27600 ft 339 kts 228°
2026-05-04 20:30 32.40207 132.27662 27163 ft 335 kts 228°
2026-05-04 20:30 32.38498 132.25797 26717 ft 332 kts 228°
2026-05-04 20:31 32.37390 132.24553 26429 ft 329 kts 231°
2026-05-04 20:31 32.35494 132.21809 25788 ft 323 kts 239°
2026-05-04 20:31 32.34311 132.19563 25374 ft 321 kts 241°
2026-05-04 20:31 32.33537 132.18067 25053 ft 321 kts 241°
2026-05-04 20:32 32.32377 132.15818 24619 ft 320 kts 241°
2026-05-04 20:32 32.31216 132.13572 24183 ft 318 kts 241°
2026-05-04 20:32 32.30064 132.11349 23773 ft 317 kts 241°
2026-05-04 20:32 32.28535 132.08407 23147 ft 315 kts 241°
2026-05-04 20:33 32.27758 132.06913 22845 ft 314 kts 241°
2026-05-04 20:33 32.26624 132.04739 22420 ft 314 kts 241°
2026-05-04 20:33 32.25479 132.02542 22007 ft 314 kts 241°
2026-05-04 20:33 32.24316 132.00314 21613 ft 323 kts 241°
2026-05-04 20:34 32.23135 131.98048 21218 ft 336 kts 241°
2026-05-04 20:34 32.21901 131.95686 20764 ft 339 kts 241°
2026-05-04 20:34 32.20659 131.93316 20319 ft 337 kts 241°
2026-05-04 20:34 32.19441 131.90994 19889 ft 334 kts 240°
2026-05-04 20:35 32.18217 131.88658 19469 ft 333 kts 241°
2026-05-04 20:35 32.16998 131.86331 19026 ft 332 kts 241°
2026-05-04 20:35 32.15784 131.84018 18625 ft 331 kts 241°
2026-05-04 20:35 32.14579 131.81722 18164 ft 331 kts 241°
2026-05-04 20:36 32.13366 131.79412 17727 ft 330 kts 240°
2026-05-04 20:36 32.12160 131.77117 17321 ft 328 kts 240°
2026-05-04 20:36 32.10960 131.74833 16911 ft 326 kts 240°
2026-05-04 20:36 32.09770 131.72569 16524 ft 324 kts 240°
2026-05-04 20:37 32.08584 131.70313 16117 ft 322 kts 240°
2026-05-04 20:37 32.07417 131.68096 15752 ft 321 kts 240°
2026-05-04 20:37 32.06241 131.65862 15377 ft 320 kts 240°
2026-05-04 20:37 32.05075 131.63647 14996 ft 319 kts 240°
2026-05-04 20:38 32.03905 131.61427 14622 ft 318 kts 240°
2026-05-04 20:38 32.02740 131.59218 14237 ft 317 kts 240°
2026-05-04 20:38 32.01574 131.57008 13767 ft 319 kts 240°
2026-05-04 20:38 32.00412 131.54806 13337 ft 319 kts 240°
2026-05-04 20:39 31.99244 131.52594 12922 ft 318 kts 240°
2026-05-04 20:39 31.98074 131.50379 12531 ft 317 kts 240°
2026-05-04 20:39 31.96908 131.48175 12131 ft 316 kts 240°
2026-05-04 20:39 31.95746 131.45979 11751 ft 315 kts 240°
2026-05-04 20:40 31.94585 131.43789 11372 ft 314 kts 239°
2026-05-04 20:40 31.93424 131.41606 10927 ft 315 kts 239°
2026-05-04 20:40 31.92273 131.39450 10671 ft 310 kts 239°
2026-05-04 20:40 31.91137 131.37324 10530 ft 302 kts 239°
2026-05-04 20:41 31.90032 131.35258 10384 ft 294 kts 239°
2026-05-04 20:41 31.88969 131.33270 10256 ft 286 kts 239°
2026-05-04 20:41 31.87924 131.31315 10148 ft 278 kts 239°
2026-05-04 20:41 31.86903 131.29406 9941 ft 273 kts 239°
2026-05-04 20:42 31.85896 131.27522 9663 ft 272 kts 239°
2026-05-04 20:42 31.84892 131.25644 9388 ft 270 kts 239°
2026-05-04 20:42 31.83893 131.23777 9134 ft 268 kts 239°
2026-05-04 20:42 31.82900 131.21921 8858 ft 267 kts 239°
2026-05-04 20:43 31.81923 131.20099 8589 ft 266 kts 239°
2026-05-04 20:43 31.80934 131.18254 8325 ft 265 kts 239°
2026-05-04 20:43 31.79952 131.16421 8053 ft 264 kts 239°
2026-05-04 20:43 31.78972 131.14594 7781 ft 263 kts 239°
2026-05-04 20:44 31.78007 131.12795 7514 ft 262 kts 239°
2026-05-04 20:44 31.77034 131.10985 7250 ft 261 kts 239°
2026-05-04 20:44 31.76060 131.09175 6983 ft 261 kts 239°
2026-05-04 20:44 31.75094 131.07376 6717 ft 260 kts 239°
2026-05-04 20:45 31.74126 131.05572 6440 ft 260 kts 239°
2026-05-04 20:45 31.73161 131.03774 6157 ft 259 kts 238°
2026-05-04 20:45 31.72202 131.01987 5884 ft 258 kts 237°
2026-05-04 20:45 31.71263 131.00240 5735 ft 252 kts 237°
2026-05-04 20:46 31.70361 130.98562 5605 ft 246 kts 237°
2026-05-04 20:46 31.69461 130.96889 5481 ft 238 kts 237°
2026-05-04 20:46 31.68586 130.95264 5382 ft 231 kts 237°
2026-05-04 20:46 31.67749 130.93708 5267 ft 227 kts 237°
2026-05-04 20:47 31.66936 130.92125 5051 ft 226 kts 245°
2026-05-04 20:47 31.66547 130.90363 4845 ft 220 kts 258°
2026-05-04 20:47 31.66259 130.88612 4575 ft 216 kts 257°
2026-05-04 20:47 31.65978 130.86903 4334 ft 211 kts 264°
2026-05-04 20:48 31.66238 130.85249 4133 ft 209 kts 291°
2026-05-04 20:48 31.66750 130.83667 3939 ft 205 kts 289°
2026-05-04 20:48 31.67228 130.82099 3723 ft 199 kts 289°
2026-05-04 20:48 31.67779 130.80655 3457 ft 196 kts 310°
2026-05-04 20:49 31.68873 130.79789 3279 ft 191 kts 336°
2026-05-04 20:49 31.70033 130.78988 2999 ft 189 kts 329°
2026-05-04 20:49 31.71125 130.78205 2752 ft 179 kts 332°
2026-05-04 20:49 31.72159 130.77497 2510 ft 173 kts 332°
2026-05-04 20:50 31.73197 130.76793 2284 ft 171 kts 332°
2026-05-04 20:50 31.74211 130.76103 2060 ft 170 kts 331°
2026-05-04 20:50 31.75204 130.75428 1829 ft 159 kts 332°
2026-05-04 20:50 31.76137 130.74793 1615 ft 151 kts 332°
2026-05-04 20:51 31.77037 130.74181 1410 ft 148 kts 331°
2026-05-04 20:51 31.77919 130.73576 1210 ft 147 kts 330°
2026-05-04 20:51 31.78802 130.72976 1015 ft 146 kts 332°
2026-05-04 20:51 31.79673 130.72387 896 ft 136 kts 330°
2026-05-04 20:52 31.80292 130.71970 910 ft 70 kts 331°
2026-05-04 20:52 31.80579 130.71777 915 ft 28 kts 330°
2026-05-04 20:52 31.80736 130.71656 916 ft 26 kts 322°
2026-05-04 20:52 31.80838 130.71520 919 ft 15 kts 304°
2026-05-04 20:53 31.80837 130.71410 920 ft 15 kts 220°
2026-05-04 20:53 31.80745 130.71437 918 ft 15 kts 151°
2026-05-04 20:53 31.80654 130.71500 916 ft 15 kts 150°
2026-05-04 20:53 31.80566 130.71559 914 ft 14 kts 150°
2026-05-04 20:54 31.80486 130.71614 913 ft 11 kts 150°
2026-05-04 20:54 31.80425 130.71596 913 ft 10 kts 240°
2026-05-04 20:54 31.80390 130.71524 912 ft 10 kts 240°
2026-05-04 20:54 31.80377 130.71497 915 ft 0 kts 240°